Location: *
(50.8667°S, 179.2667°W)
Time: 02:32:53
(UTC+00:00)

Cosmos 2263 Rocket - Pass Details

Date: 02 October 2023
Orbit: 824 x 847 km, 71.0° (Epoch: 01 December)

Event Time Altitude Azimuth Distance (km) Brightness Sun altitude
Rises 14:55:29 0° 210° (SSW) 3,450 5.5 -22.2°
Reaches altitude 10° 14:57:58 10° 208° (SSW) 2,510 4.8 -21.9°
Maximum altitude 15:03:46 77° 121° (ESE) 886 2.3 -21.2°
Drops below altitude 10° 15:09:29 10° 34° (NE) 2,481 4.6 -20.4°
Sets 15:11:56 0° 32° (NNE) 3,408 5.3 -20.1°
